| time (UTC) | temp F | wind direction | speed MPH | gust MPH | rain 1hr in | rain 24hr in | rain mn in | humidity % | barometer mb |
| 20260506090000 | 52 | 0 | 6.0 | 0.0 | 0.00 | 0.00 | 0.00 | 73 | |
| 20260506085000 | 52 | 0 | 0.0 | 0.0 | 0.00 | 0.00 | 0.00 | 73 | |
| 20260506084000 | 52 | 0 | 4.0 | 0.0 | 0.00 | 0.00 | 0.00 | 75 | |
| 20260506083000 | 51 | 0 | 4.0 | 0.0 | 0.00 | 0.00 | 0.00 | 73 | |
| 20260506082000 | 51 | 0 | 6.0 | 0.0 | 0.00 | 0.00 | 0.00 | 73 | |
| 20260506081000 | 51 | 0 | 6.0 | 0.0 | 0.00 | 0.00 | 0.00 | 73 | |
| 20260506073000 | 50 | 0 | 6.0 | 0.0 | 0.00 | 0.00 | 0.00 | 74 | |
| 20260506072000 | 50 | 0 | 9.0 | 0.0 | 0.00 | 0.00 | 0.00 | 73 | |
| 20260506071000 | 50 | 0 | 5.0 | 0.0 | 0.00 | 0.00 | 0.00 | 74 | |
| 20260506062000 | 49 | 0 | 7.0 | 0.0 | 0.00 | 0.00 | 0.00 | 75 | |
| 20260506061000 | 49 | 0 | 6.0 | 0.0 | 0.00 | 0.00 | 0.00 | 75 | |
| 20260506051001 | 49 | 0 | 7.0 | 0.0 | 0.00 | 0.00 | 0.00 | 77 | |
| 20260506045000 | 48 | 0 | 6.0 | 0.0 | 0.00 | 0.00 | 0.00 | 78 | |
| 20260506044001 | 48 | 0 | 6.0 | 0.0 | 0.00 | 0.00 | 0.00 | 76 | |
| 20260506043001 | 47 | 0 | 5.0 | 0.0 | 0.00 | 0.00 | 0.00 | 78 | |
| 20260506042001 | 47 | 0 | 6.0 | 0.0 | 0.00 | 0.00 | 0.00 | 80 | |
| 20260506041000 | 46 | 0 | 4.0 | 0.0 | 0.00 | 0.00 | 0.00 | 84 | |
| 20260506040000 | 46 | 0 | 0.0 | 0.0 | 0.00 | 0.00 | 0.00 | 85 | |
| 20260506035001 | 45 | 0 | 0.0 | 0.0 | 0.00 | 0.00 | 0.00 | 86 | |
| 20260506034000 | 44 | 0 | 0.0 | 0.0 | 0.00 | 0.00 | 0.00 | 87 | |
| 20260506033000 | 44 | 0 | 0.0 | 0.0 | 0.00 | 0.00 | 0.00 | 87 | |
| 20260506032000 | 44 | 0 | 0.0 | 0.0 | 0.00 | 0.00 | 0.00 | 87 | |
| 20260506031000 | 44 | 0 | 0.0 | 0.0 | 0.00 | 0.00 | 0.00 | 87 | |
| 20260506030000 | 44 | 0 | 0.0 | 0.0 | 0.00 | 0.00 | 0.00 | 87 | |
| 20260506025000 | 44 | 0 | 0.0 | 0.0 | 0.00 | 0.00 | 0.00 | 87 | |
| 20260506024000 | 44 | 0 | 0.0 | 0.0 | 0.00 | 0.00 | 0.00 | 87 | |
| 20260506023001 | 44 | 0 | 0.0 | 0.0 | 0.00 | 0.00 | 0.00 | 87 | |
| 20260506022000 | 44 | 0 | 0.0 | 0.0 | 0.00 | 0.00 | 0.00 | 87 | |
| 20260506021000 | 44 | 0 | 0.0 | 0.0 | 0.00 | 0.00 | 0.00 | 87 | |
| 20260506020000 | 44 | 0 | 0.0 | 0.0 | 0.00 | 0.00 | 0.00 | 87 | |
| 20260506015000 | 44 | 0 | 0.0 | 0.0 | 0.00 | 0.00 | 0.00 | 87 | |
| 20260506014000 | 44 | 0 | 0.0 | 0.0 | 0.00 | 0.00 | 0.00 | 87 | |
| 20260506013001 | 44 | 0 | 0.0 | 0.0 | 0.00 | 0.00 | 0.00 | 87 | |
| 20260506012000 | 44 | 0 | 0.0 | 0.0 | 0.00 | 0.00 | 0.00 | 87 | |
| 20260506011001 | 45 | 0 | 0.0 | 0.0 | 0.00 | 0.00 | 0.00 | 87 | |
| 20260506010000 | 45 | 0 | 0.0 | 0.0 | 0.00 | 0.00 | 0.00 | 87 | |
| 20260506005000 | 45 | 0 | 0.0 | 0.0 | 0.00 | 0.00 | 0.00 | 87 | |
| 20260506004001 | 45 | 0 | 0.0 | 0.0 | 0.00 | 0.00 | 0.00 | 87 | |
| 20260506003000 | 45 | 0 | 0.0 | 0.0 | 0.00 | 0.00 | 0.00 | 87 | |
| 20260506002000 | 45 | 0 | 0.0 | 0.0 | 0.00 | 0.00 | 0.00 | 87 | |
| 20260506001000 | 45 | 0 | 0.0 | 0.0 | 0.00 | 0.00 | 0.00 | 88 | |
| 20260506000001 | 45 | 0 | 0.0 | 0.0 | 0.00 | 0.00 | 0.00 | 88 | |
| 20260505235000 | 45 | 0 | 0.0 | 0.0 | 0.00 | 0.00 | 0.00 | 88 | |
| 20260505234000 | 44 | 0 | 0.0 | 0.0 | 0.00 | 0.00 | 0.00 | 88 | |
| 20260505233000 | 44 | 0 | 0.0 | 0.0 | 0.00 | 0.00 | 0.00 | 88 | |
| 20260505232000 | 44 | 0 | 0.0 | 0.0 | 0.00 | 0.00 | 0.00 | 88 | |
| 20260505231000 | 44 | 0 | 0.0 | 0.0 | 0.00 | 0.00 | 0.00 | 88 | |
| 20260505230001 | 45 | 0 | 0.0 | 0.0 | 0.00 | 0.00 | 0.00 | 88 | |
| 20260505225000 | 44 | 0 | 0.0 | 0.0 | 0.00 | 0.00 | 0.00 | 87 | |
| 20260505224000 | 44 | 0 | 0.0 | 0.0 | 0.00 | 0.00 | 0.00 | 87 | |
| 20260505223000 | 44 | 0 | 0.0 | 0.0 | 0.00 | 0.00 | 0.00 | 87 | |
| 20260505222001 | 44 | 0 | 0.0 | 0.0 | 0.00 | 0.00 | 0.00 | 87 | |
| 20260505221000 | 44 | 0 | 0.0 | 0.0 | 0.00 | 0.00 | 0.00 | 86 | |
| 20260505220001 | 44 | 0 | 0.0 | 0.0 | 0.00 | 0.00 | 0.00 | 86 | |
| 20260505215000 | 45 | 0 | 0.0 | 0.0 | 0.00 | 0.00 | 0.00 | 86 | |
| 20260505214000 | 45 | 0 | 0.0 | 0.0 | 0.00 | 0.00 | 0.00 | 86 | |
| 20260505213001 | 45 | 0 | 0.0 | 0.0 | 0.00 | 0.00 | 0.00 | 86 | |
| 20260505212000 | 45 | 0 | 0.0 | 0.0 | 0.00 | 0.00 | 0.00 | 85 | |
| 20260505211000 | 45 | 0 | 0.0 | 0.0 | 0.00 | 0.00 | 0.00 | 85 | |
| 20260505210000 | 46 | 0 | 0.0 | 0.0 | 0.00 | 0.00 | 0.00 | 85 | |
| 20260505205000 | 46 | 0 | 0.0 | 0.0 | 0.00 | 0.00 | 0.00 | 85 | |
| 20260505204001 | 46 | 0 | 0.0 | 0.0 | 0.00 | 0.00 | 0.00 | 84 | |
| 20260505203001 | 47 | 0 | 0.0 | 0.0 | 0.00 | 0.00 | 0.00 | 84 | |
| 20260505202001 | 47 | 0 | 0.0 | 0.0 | 0.00 | 0.00 | 0.00 | 84 | |
| 20260505201000 | 47 | 0 | 0.0 | 0.0 | 0.00 | 0.00 | 0.00 | 84 | |
| 20260505200000 | 48 | 0 | 0.0 | 0.0 | 0.00 | 0.00 | 0.00 | 84 | |
| 20260505194000 | 48 | 0 | 0.0 | 0.0 | 0.00 | 0.00 | 0.00 | 83 | |
| 20260505193001 | 49 | 0 | 0.0 | 0.0 | 0.00 | 0.00 | 0.00 | 83 | |
| 20260505192000 | 49 | 0 | 0.0 | 0.0 | 0.00 | 0.00 | 0.00 | 82 | |
| 20260505191000 | 49 | 0 | 0.0 | 0.0 | 0.00 | 0.00 | 0.00 | 82 | |
| 20260505190000 | 49 | 0 | 4.0 | 0.0 | 0.00 | 0.00 | 0.00 | 81 | |
| 20260505185001 | 50 | 0 | 4.0 | 0.0 | 0.00 | 0.00 | 0.00 | 79 | |
| 20260505184000 | 50 | 0 | 0.0 | 0.0 | 0.00 | 0.00 | 0.00 | 78 | |
| 20260505183001 | 51 | 0 | 2.0 | 0.0 | 0.00 | 0.00 | 0.00 | 78 | |
| 20260505182000 | 51 | 0 | 4.0 | 0.0 | 0.00 | 0.00 | 0.00 | 77 | |
| 20260505181001 | 52 | 0 | 4.0 | 0.0 | 0.00 | 0.00 | 0.00 | 75 | |
| 20260505180001 | 53 | 0 | 5.0 | 0.0 | 0.00 | 0.00 | 0.00 | 74 | |
| 20260505175000 | 53 | 0 | 4.0 | 0.0 | 0.00 | 0.00 | 0.00 | 76 | |
| 20260505174000 | 54 | 0 | 5.0 | 0.0 | 0.00 | 0.00 | 0.00 | 75 | |
| 20260505173000 | 54 | 0 | 5.0 | 0.0 | 0.00 | 0.00 | 0.00 | 74 | |
| 20260505172000 | 55 | 0 | 4.0 | 0.0 | 0.00 | 0.00 | 0.00 | 75 | |
| 20260505171000 | 55 | 0 | 6.0 | 0.0 | 0.00 | 0.00 | 0.00 | 73 | |
| 20260505170001 | 56 | 0 | 5.0 | 0.0 | 0.00 | 0.00 | 0.00 | 73 | |
| 20260505165000 | 57 | 0 | 5.0 | 0.0 | 0.00 | 0.00 | 0.00 | 73 | |
| 20260505164001 | 56 | 0 | 4.0 | 0.0 | 0.00 | 0.00 | 0.00 | 75 | |
| 20260505163000 | 56 | 0 | 4.0 | 0.0 | 0.00 | 0.00 | 0.00 | 75 | |
| 20260505162000 | 56 | 0 | 4.0 | 0.0 | 0.00 | 0.00 | 0.00 | 76 | |
| 20260505161000 | 56 | 0 | 4.0 | 0.0 | 0.00 | 0.00 | 0.00 | 75 | |
| 20260505153000 | 57 | 0 | 5.0 | 0.0 | 0.00 | 0.00 | 0.00 | 75 | |
| 20260505152001 | 57 | 0 | 5.0 | 0.0 | 0.00 | 0.00 | 0.00 | 75 | |
| 20260505151000 | 58 | 0 | 6.0 | 0.0 | 0.00 | 0.00 | 0.00 | 75 | |
| 20260505125000 | 58 | 0 | 5.0 | 0.0 | 0.00 | 0.00 | 0.00 | 76 | |
| 20260505124000 | 57 | 0 | 5.0 | 0.0 | 0.00 | 0.00 | 0.00 | 76 | |
| 20260505123000 | 58 | 0 | 0.0 | 0.0 | 0.00 | 0.00 | 0.00 | 76 | |
| 20260505122000 | 57 | 0 | 2.0 | 0.0 | 0.00 | 0.00 | 0.00 | 79 | |
| 20260505121001 | 56 | 0 | 5.0 | 0.0 | 0.00 | 0.00 | 0.00 | 79 | |
| 20260505120000 | 57 | 0 | 6.0 | 0.0 | 0.00 | 0.00 | 0.00 | 79 | |
| 20260505115000 | 57 | 0 | 5.0 | 0.0 | 0.00 | 0.00 | 0.00 | 78 | |
| 20260505114000 | 57 | 0 | 6.0 | 0.0 | 0.00 | 0.00 | 0.00 | 79 | |
| 20260505113000 | 56 | 0 | 5.0 | 0.0 | 0.00 | 0.00 | 0.00 | 81 | |
| 20260505112000 | 56 | 0 | 0.0 | 0.0 | 0.00 | 0.00 | 0.00 | 81 | |
| 20260505111000 | 55 | 0 | 5.0 | 0.0 | 0.00 | 0.00 | 0.00 | 83 | |
| 20260505102000 | 53 | 0 | 5.0 | 0.0 | 0.00 | 0.00 | 0.00 | 85 | |
| 20260505101000 | 54 | 0 | 5.0 | 0.0 | 0.00 | 0.00 | 0.00 | 86 | |
| 20260505100000 | 54 | 0 | 4.0 | 0.0 | 0.00 | 0.00 | 0.00 | 87 | |
| 20260505095000 | 53 | 0 | 0.0 | 0.0 | 0.00 | 0.00 | 0.00 | 88 | |
| 20260505094000 | 52 | 0 | 5.0 | 0.0 | 0.00 | 0.00 | 0.00 | 88 | |
| 20260505093001 | 52 | 0 | 5.0 | 0.0 | 0.00 | 0.00 | 0.00 | 88 | |
| 20260505092000 | 52 | 0 | 4.0 | 0.0 | 0.00 | 0.00 | 0.00 | 89 | |
| 20260505091000 | 51 | 0 | 4.0 | 0.0 | 0.00 | 0.00 | 0.00 | 89 |